Regional Weather Roundup
Issued by NWS

Home | Current Version | Previous Version | Graphics & Text | Print | Product List | Glossary On
Versions: 1 2 3 4 5 6 7 8 9 10 11 12 13 14 15 16 17 18 19 20 21 22 23 24 25 26 27 28 29 30 31 32 33 34 35 36 37 38 39 40 41 42 43 44 45 46 47 48 49 50
000
ASUS45 KSLC 271710
RWRUT

UTAH REGIONAL WEATHER ROUNDUP
NATIONAL WEATHER SERVICE SALT LAKE CITY UT
1000 AM MST THU NOV 27 2014

UTZ001>011-023>025-271800-

NORTHERN UTAH

CITY           SKY/WX    TMP DP  RH WIND       PRES   REMARKS
BRIGHAM CITY   CLOUDY    45  31  58 N3        30.32R
HILL AFB       CLOUDY    46  27  46 SE5       30.31R
LOGAN          PTSUNNY   43  32  65 N8        30.30R
OGDEN          CLOUDY    46  28  49 S6        30.30R
PROVO AIRPORT  CLOUDY    43  28  56 CALM      30.37R
SALT LAKE CITY CLOUDY    50  25  37 SE12      30.29R
VERNAL         PTSUNNY   41  26  55 CALM      30.41S
WENDOVER       CLOUDY    39  30  70 CALM      30.30S
HEBER CITY     PTSUNNY   34  28  80 CALM      30.38S
WEST JORDAN    SUNNY     50  30  46 S16       30.31S

$$

UTZ012>022-026-027-271800-

SOUTHERN/CENTRAL UTAH

CITY           SKY/WX    TMP DP  RH WIND       PRES   REMARKS
BLANDING       MOSUNNY   42  23  47 E5        30.56S
BRYCE CANYON   MOSUNNY   43  12  28 CALM      30.51S
CEDAR CITY     MOSUNNY   43  19  38 CALM      30.40S
DELTA          CLOUDY    39  28  65 E6        30.36F WCI  35
MILFORD        NOT AVBL
MOAB/CYNLANDS  SUNNY     44  25  47 SE7       30.45S
PRICE          MOSUNNY   40  24  53 CALM      30.45S
ST GEORGE      PTSUNNY   43  18  36 CALM      30.42S
KANAB          MOSUNNY   50  16  25 CALM      30.46S

$$

REGIONAL REPORTS     COLORADO/ARIZONA

CITY           SKY/WX    TMP DP  RH WIND       PRES   REMARKS
CRAIG, CO      CLOUDY    34  27  75 SW3       30.40S
GRAND JUNCTION SUNNY     39  28  64 CALM      30.46F
RIFLE          MOSUNNY   30  25  81 CALM      30.49F
MONTROSE       SUNNY     39  23  52 CALM      30.50F
CORTEZ         SUNNY     43  20  39 NE3       30.49F
PAGE, AZ       MOSUNNY   44  18  35 CALM      30.46S
GRAND CANYON   SUNNY     57  14  18 VRB6      30.47S
KINGMAN        SUNNY     60  17  18 NE3       30.32S
FLAGSTAFF      SUNNY     50  17  27 E9        30.50S

$$

REGIONAL REPORTS    NEVADA/IDAHO/WYOMING

CITY           SKY/WX    TMP DP  RH WIND       PRES   REMARKS
LAS VEGAS, NV  PTSUNNY   57  19  22 S3        30.28R
ELY            CLOUDY    43  18  36 SE7       30.39S
ELKO           CLOUDY    38  31  76 W6        30.31R WCI  33
POCATELLO, ID  PTSUNNY   53  28  38 S12       30.23S
BURLEY         CLOUDY    47  32  56 CALM      30.23R
EVANSTON, WY   MOSUNNY   45  20  36 SW13      30.35R
ROCK SPRINGS   CLOUDY    38  22  52 SW8       30.32S WCI  32

$$



USA.gov is the U.S. government's official web portal to all federal, state and local government web resources and services.